Home   Weather   Palma   Past weeks
Flag for Spain

Past Weather in Palma, Majorca, Spain — Yesterday and Last 2 Weeks

Now
75 °F

Passing clouds.


Feels Like: 77 °F
Forecast: 83 / 65 °F
Wind: 5 mph from East

Location: Palma De Mallorca / Son San Juan

Current Time: Jul 16, 2019 at 1:16:32 am

Latest Report: Jul 16, 2019 at 12:30 am


Visibility: N/A

Pressure: 29.98 "Hg

Humidity: 69%

Dew Point: 64 °F

Location of PalmaLocation

Past Weather in Palma — Graph

°F

Palma Temperature Yesterday

Maximum temperature yesterday: 88 °F (at 4:00 pm)
Minimum temperature yesterday: 66 °F (at 6:00 am)
Average temperature yesterday: 78 °F

High & Low Weather Summary for the Past Weeks

 TemperatureHumidityPressure
High99 °F (Jul 1, 1:30 pm)100% (Jul 5, 2:30 am)30.04 "Hg (Jul 5, 2:30 am)
Low66 °F (Jul 3, 5:00 am)22% (Jul 1, 1:30 pm)29.74 "Hg (Jul 9, 3:00 am)
Average82 °F67%29.93 "Hg
* Reported Jul 1 12:00 am — Jul 16 12:00 am, Palma. Weather by CustomWeather, © 2019

Note: Actual official high and low records may vary slightly from our data, if they occured in-between our weather recording intervals... More about our weather records

Advertising

Palma Weather History for the Previous 24 Hours

Scroll right to see more
 ConditionsComfort  
Time TempWeatherWind HumidityBarometerVisibility
12:00 am
Tue, Jul 16
75 °FPassing clouds.5 mph69%29.95 "HgN/A
11:30 pm
Mon, Jul 15
75 °FPassing clouds.5 mph69%29.95 "HgN/A
11:00 pm77 °FPassing clouds.3 mph65%29.95 "HgN/A
10:30 pm79 °FPassing clouds.7 mph61%29.95 "HgN/A
10:00 pm81 °FPassing clouds.9 mph58%29.92 "HgN/A
9:30 pm81 °FPassing clouds.10 mph62%29.89 "HgN/A
9:00 pm82 °FPassing clouds.10 mph62%29.89 "HgN/A
8:30 pm82 °FPassing clouds.10 mph62%29.86 "HgN/A
8:00 pm86 °FPassing clouds.10 mph59%29.86 "HgN/A
7:30 pm86 °FPassing clouds.8 mph52%29.83 "HgN/A
7:00 pm86 °FPassing clouds.7 mph49%29.83 "HgN/A
6:30 pm88 °FPassing clouds.8 mph46%29.83 "HgN/A
6:00 pm88 °FPassing clouds.7 mph43%29.83 "HgN/A
5:30 pm88 °FPassing clouds.9 mph40%29.83 "HgN/A
5:00 pm88 °FPassing clouds.10 mph43%29.83 "HgN/A
4:30 pm88 °FPassing clouds.12 mph46%29.83 "HgN/A
4:00 pm88 °FPassing clouds.10 mph49%29.83 "HgN/A
3:30 pm86 °FPassing clouds.8 mph52%29.86 "HgN/A
3:00 pm84 °FPassing clouds.7 mph58%29.86 "HgN/A
2:30 pm84 °FScattered clouds.9 mph58%29.86 "HgN/A
1:30 pm84 °FPartly sunny.7 mph55%29.86 "HgN/A
1:00 pm81 °FPartly sunny.9 mph74%29.86 "HgN/A
12:30 pm81 °FPartly sunny.9 mph74%29.86 "HgN/A
12:00 pm81 °FPartly sunny.10 mph79%29.86 "HgN/A
11:30 am81 °FScattered clouds.7 mph70%29.86 "HgN/A
11:00 am81 °FScattered clouds.6 mph62%29.86 "HgN/A
10:30 am81 °FPassing clouds.5 mph62%29.86 "HgN/A
10:00 am81 °FPassing clouds.6 mph62%29.86 "HgN/A
9:30 am77 °FPassing clouds.1 mph74%29.86 "HgN/A
9:00 am77 °FSunny.3 mph74%29.86 "Hg10 mi
8:30 am75 °FSunny.No wind74%29.83 "Hg10 mi
8:00 am70 °FSunny.No wind83%29.83 "Hg10 mi
7:30 am68 °FSunny.5 mph100%29.83 "Hg10 mi
7:00 am66 °FSunny.1 mph100%29.83 "Hg10 mi
6:30 am68 °FPassing clouds.3 mph94%29.83 "HgN/A
6:00 am66 °FClear.No wind100%29.83 "Hg10 mi
5:30 am68 °FClear.2 mph100%29.83 "Hg10 mi
5:00 am68 °FClear.No wind100%29.83 "Hg10 mi
4:30 am70 °FClear.No wind88%29.83 "Hg10 mi
4:00 am68 °FClear.No wind100%29.83 "Hg10 mi
3:30 am70 °FPassing clouds.3 mph100%29.83 "HgN/A
3:00 am72 °FClear.3 mph88%29.83 "Hg10 mi
2:30 am72 °FClear.1 mph83%29.86 "Hg10 mi
2:00 am72 °FClear.1 mph78%29.86 "Hg10 mi
1:30 am72 °FClear.1 mph78%29.86 "Hg10 mi
1:00 am72 °FClear.1 mph78%29.86 "Hg10 mi
Weather by CustomWeather, © 2019

See weather overview

LIVE PARTIAL LUNAR ECLIPSE – Watch the eclipse as it happens